• In Belarus
  • List of Countries
  • For 7 days
  • Water Temperature
  • Weather Map
  • Weather Widgets
  • user-avatar
    Login

    Hourly Weather Lalin

    Today, 21 February, Friday

    Time Temperature Precipitation Wind Pressure Humidity
    00:00 +6°C° 0 mm 1 mps 722 mmHg 97%
    01:00 +6°C° 0 mm 1 mps 722 mmHg 97%
    02:00 +5°C° 0 mm 1 mps 722 mmHg 97%
    03:00 +5°C° 0 mm 1 mps 722 mmHg 97%
    04:00 +5°C° 0 mm 1 mps 722 mmHg 97%
    05:00 +4°C° 0 mm 1 mps 722 mmHg 97%
    12:00 +16°C° 0 mm 1 mps 723 mmHg 48%
    13:00 +16°C° 0 mm 0 mps 723 mmHg 47%
    14:00 +16°C° 0 mm 0 mps 722 mmHg 45%
    15:00 +14°C° 0 mm 0 mps 722 mmHg 54%
    16:00 +12°C° 0 mm 0 mps 722 mmHg 64%
    17:00 +10°C° 0 mm 0 mps 722 mmHg 74%
    18:00 +9°C° 0 mm 0 mps 722 mmHg 76%
    19:00 +8°C° 0 mm 0 mps 723 mmHg 79%
    20:00 +7°C° 0 mm 0 mps 723 mmHg 81%
    21:00 +6°C° 0 mm 0 mps 723 mmHg 82%
    22:00 +6°C° 0 mm 0 mps 723 mmHg 83%
    23:00 +7°C° 0 mm 1 mps 723 mmHg 83%

    Tomorrow, 22 February, Saturday

    Time Temperature Precipitation Wind Pressure Humidity
    00:00 +7°C° 0 mm 1 mps 723 mmHg 84%
    01:00 +5°C° 0 mm 0 mps 723 mmHg 84%
    02:00 +5°C° 0 mm 0 mps 722 mmHg 84%
    03:00 +5°C° 0 mm 0 mps 723 mmHg 84%
    04:00 +5°C° 0 mm 0 mps 723 mmHg 84%
    05:00 +4°C° 0 mm 0 mps 724 mmHg 83%
    06:00 +5°C° 0 mm 0 mps 724 mmHg 80%
    07:00 +8°C° 0 mm 1 mps 724 mmHg 76%
    08:00 +9°C° 0 mm 1 mps 725 mmHg 73%
    09:00 +11°C° 0 mm 1 mps 725 mmHg 64%
    10:00 +14°C° 0 mm 1 mps 726 mmHg 56%
    11:00 +18°C° 0 mm 1 mps 726 mmHg 48%
    12:00 +18°C° 0 mm 1 mps 726 mmHg 47%
    13:00 +19°C° 0 mm 1 mps 726 mmHg 46%
    14:00 +20°C° 0 mm 1 mps 725 mmHg 44%
    15:00 +16°C° 0 mm 1 mps 725 mmHg 55%
    16:00 +14°C° 0 mm 1 mps 725 mmHg 65%
    17:00 +11°C° 0 mm 0 mps 724 mmHg 75%
    18:00 +11°C° 0 mm 1 mps 724 mmHg 77%
    19:00 +10°C° 0 mm 1 mps 725 mmHg 80%
    20:00 +9°C° 0 mm 1 mps 725 mmHg 82%
    21:00 +8°C° 0 mm 1 mps 725 mmHg 82%
    22:00 +8°C° 0 mm 1 mps 725 mmHg 82%
    23:00 +7°C° 0 mm 1 mps 725 mmHg 83%

    Day after tomorrow, 23 February, Sunday

    Time Temperature Precipitation Wind Pressure Humidity
    00:00 +7°C° 0 mm 1 mps 725 mmHg 83%
    01:00 +7°C° 0 mm 1 mps 724 mmHg 84%
    02:00 +7°C° 0 mm 1 mps 724 mmHg 85%
    03:00 +7°C° 0 mm 1 mps 724 mmHg 84%
    04:00 +7°C° 0 mm 1 mps 724 mmHg 84%
    05:00 +6°C° 0 mm 1 mps 724 mmHg 83%
    06:00 +8°C° 0 mm 1 mps 724 mmHg 78%
    07:00 +9°C° 0 mm 1 mps 724 mmHg 73%
    08:00 +10°C° 0 mm 1 mps 725 mmHg 68%
    09:00 +12°C° 0 mm 0 mps 725 mmHg 60%
    10:00 +15°C° 0 mm 0 mps 726 mmHg 51%
    11:00 +18°C° 0 mm 0 mps 726 mmHg 43%
    12:00 +18°C° 0 mm 0 mps 726 mmHg 41%
    13:00 +19°C° 0 mm 0 mps 725 mmHg 40%
    14:00 +19°C° 0 mm 0 mps 725 mmHg 39%
    15:00 +17°C° 0 mm 0 mps 724 mmHg 50%
    16:00 +14°C° 0 mm 0 mps 724 mmHg 61%
    17:00 +12°C° 0 mm 0 mps 723 mmHg 72%
    18:00 +11°C° 0 mm 0 mps 723 mmHg 74%
    19:00 +10°C° 0 mm 0 mps 723 mmHg 76%
    20:00 +9°C° 0 mm 0 mps 723 mmHg 79%
    21:00 +8°C° 0 mm 0 mps 723 mmHg 79%
    22:00 +8°C° 0 mm 0 mps 723 mmHg 79%
    23:00 +9°C° 0 mm 1 mps 723 mmHg 78%

    24 February, Monday

    Time Temperature Precipitation Wind Pressure Humidity
    00:00 +8°C° 0 mm 1 mps 723 mmHg 78%
    01:00 +8°C° 0 mm 1 mps 722 mmHg 77%
    02:00 +8°C° 0 mm 1 mps 722 mmHg 76%
    03:00 +7°C° 0 mm 1 mps 722 mmHg 76%
    04:00 +7°C° 0 mm 1 mps 721 mmHg 75%
    05:00 +7°C° 0 mm 1 mps 721 mmHg 75%
    06:00 +8°C° 0 mm 1 mps 721 mmHg 72%
    07:00 +9°C° 0 mm 1 mps 722 mmHg 68%
    08:00 +10°C° 0 mm 0 mps 722 mmHg 65%
    09:00 +13°C° 0 mm 1 mps 722 mmHg 57%
    10:00 +15°C° 0 mm 1 mps 722 mmHg 50%
    11:00 +18°C° 0 mm 1 mps 722 mmHg 42%
    12:00 +19°C° 0 mm 1 mps 722 mmHg 42%
    13:00 +18°C° 0 mm 2 mps 722 mmHg 42%
    14:00 +18°C° 0 mm 2 mps 721 mmHg 42%
    15:00 +16°C° 0 mm 1 mps 721 mmHg 51%
    16:00 +13°C° 0 mm 1 mps 721 mmHg 60%
    17:00 +11°C° 0 mm 1 mps 720 mmHg 69%
    18:00 +10°C° 0 mm 1 mps 720 mmHg 71%
    19:00 +9°C° 0 mm 1 mps 720 mmHg 73%
    20:00 +8°C° 0 mm 1 mps 720 mmHg 75%
    21:00 +7°C° 0 mm 1 mps 720 mmHg 75%
    22:00 +7°C° 0 mm 1 mps 720 mmHg 75%
    23:00 +7°C° 0 mm 1 mps 720 mmHg 75%

    25 February, Tuesday

    Time Temperature Precipitation Wind Pressure Humidity
    00:00 +7°C° 0 mm 1 mps 720 mmHg 76%
    01:00 +7°C° 0 mm 1 mps 719 mmHg 78%
    02:00 +7°C° 0 mm 1 mps 719 mmHg 80%
    03:00 +7°C° 0 mm 1 mps 719 mmHg 81%
    04:00 +7°C° 0 mm 1 mps 719 mmHg 82%
    05:00 +7°C° 0 mm 1 mps 719 mmHg 83%
    06:00 +7°C° 0 mm 2 mps 719 mmHg 83%
    07:00 +7°C° 0 mm 2 mps 719 mmHg 83%
    08:00 +8°C° 0 mm 2 mps 719 mmHg 83%
    09:00 +8°C° 0 mm 2 mps 719 mmHg 84%
    10:00 +9°C° 0 mm 2 mps 720 mmHg 86%
    11:00 +9°C° 0 mm 2 mps 720 mmHg 87%
    12:00 +9°C° 0.2 mm 2 mps 720 mmHg 89%
    13:00 +9°C° 0.2 mm 2 mps 720 mmHg 90%
    14:00 +10°C° 0.2 mm 1 mps 719 mmHg 92%
    15:00 +10°C° 0.2 mm 1 mps 720 mmHg 94%
    16:00 +10°C° 0.2 mm 1 mps 720 mmHg 95%
    17:00 +10°C° 0.2 mm 1 mps 720 mmHg 97%
    18:00 +9°C° 0.1 mm 1 mps 720 mmHg 97%
    19:00 +9°C° 0.1 mm 1 mps 721 mmHg 97%
    20:00 +9°C° 0.1 mm 1 mps 721 mmHg 98%
    21:00 +8°C° 0 mm 1 mps 721 mmHg 98%
    22:00 +8°C° 0 mm 1 mps 721 mmHg 98%
    23:00 +7°C° 0 mm 1 mps 721 mmHg 98%

    26 February, Wednesday

    Time Temperature Precipitation Wind Pressure Humidity
    00:00 +7°C° 0 mm 1 mps 721 mmHg 98%
    01:00 +7°C° 0 mm 1 mps 721 mmHg 97%
    02:00 +5°C° 0 mm 0 mps 720 mmHg 97%
    03:00 +5°C° 0 mm 0 mps 720 mmHg 97%
    04:00 +5°C° 0 mm 0 mps 720 mmHg 97%
    05:00 +4°C° 0 mm 0 mps 720 mmHg 97%
    06:00 +5°C° 0 mm 0 mps 720 mmHg 96%
    07:00 +6°C° 0 mm 0 mps 721 mmHg 95%
    08:00 +6°C° 0 mm 0 mps 721 mmHg 93%
    09:00 +7°C° 0 mm 0 mps 721 mmHg 87%
    10:00 +9°C° 0 mm 0 mps 721 mmHg 81%
    11:00 +11°C° 0 mm 1 mps 721 mmHg 75%
    12:00 +11°C° 0 mm 1 mps 720 mmHg 70%
    13:00 +11°C° 0 mm 1 mps 720 mmHg 66%
    14:00 +12°C° 0 mm 1 mps 719 mmHg 62%
    15:00 +10°C° 0 mm 1 mps 719 mmHg 69%
    16:00 +9°C° 0 mm 1 mps 719 mmHg 76%
    17:00 +8°C° 0 mm 1 mps 719 mmHg 82%
    18:00 +7°C° 0 mm 1 mps 719 mmHg 87%
    19:00 +5°C° 0 mm 0 mps 719 mmHg 91%
    20:00 +3°C° 0 mm 0 mps 719 mmHg 95%
    21:00 +3°C° 0 mm 0 mps 719 mmHg 96%
    22:00 +3°C° 0 mm 0 mps 719 mmHg 96%
    23:00 +3°C° 0 mm 0 mps 719 mmHg 96%
    Show more